Regional Weather Roundup
Issued by NWS

Home | Current Version | Previous Version | Text Only | Print | Product List | Glossary Off
Versions: 1 2 3 4 5 6 7 8 9 10 11 12 13 14 15 16 17 18 19 20 21 22 23 24 25 26 27 28 29 30 31 32 33 34 35 36 37 38 39 40 41 42 43 44 45 46 47 48 49 50

000
ASUS43 KMKX 061200
RWRWI

WISCONSIN REGIONAL WEATHER ROUNDUP
NATIONAL WEATHER SERVICE MILWAUKEE/SULLIVAN WI
700 AM CDT WED MAY 06 2015

NOTE: "FAIR" INDICATES FEW OR NO CLOUDS BELOW 12,000 FEET WITH NO
SIGNIFICANT WEATHER AND/OR OBSTRUCTIONS TO VISIBILITY.

WIZ001-002-006>008-014>016-023>028-061300-
NORTHWEST WISCONSIN

CITY           SKY/WX    TMP DP  RH WIND       PRES   REMARKS
SUPERIOR ARPT  CLOUDY    40  38  93 NE6       30.13R
ASHLAND        CLOUDY    52  40  63 CALM      30.15S
6HR MIN TEMP:  37; 6HR MAX TEMP:  53;

HAYWARD        CLOUDY    52  47  83 SE9       30.14S
6HR MIN TEMP:  52; 6HR MAX TEMP:  56; 6HR PCP: TRACE;

SIREN          CLOUDY    53  49  87 SE7       30.10S
CUMBERLAND     CLOUDY    50  48  93 E8        30.11F FOG
RICE LAKE      CLOUDY    51  49  90 E7G16     30.14S
CHETEK         CLOUDY    51  50  96 E8G16     30.12F
LADYSMITH      LGT RAIN  50  49  95 SE9       30.16F
EAU CLAIRE     CLOUDY    53  50  89 SE10      30.13R
6HR MIN TEMP:  51; 6HR MAX TEMP:  53; 6HR PCP:  0.02;

MENOMONIE      CLOUDY    54  52  93 E8        30.11S FOG
NEW RICHMOND   CLOUDY    53  52  99 SE7       30.10R FOG
OSCEOLA        CLOUDY    54  54 100 SE7       30.12R FOG
$$

WIZ003>005-009-010-017-018-061300-
NORTH CENTRAL WISCONSIN

CITY           SKY/WX    TMP DP  RH WIND       PRES   REMARKS
MANITOWISH WTR CLOUDY    52  32  47 S6        30.18S
ARBOR VITAE    CLOUDY    52  39  61 S6        30.19R
WOODRUFF       CLOUDY    52  39  61 S6        30.19R
RHINELANDER    LGT RAIN  47  39  74 S3        30.21R
6HR MIN TEMP:  46; 6HR MAX TEMP:  51; 6HR PCP:  0.05;

EAGLE RIVER    PTSUNNY   50  30  45 CALM      30.19F
LAND O LAKES   CLOUDY    44  37  77 SE3       30.20F
PHILLIPS       CLOUDY    47  44  91 SE6       30.16S
TOMAHAWK       LGT RAIN  44  42  91 CALM      30.20R
MEDFORD        CLOUDY    47  43  88 E8        30.17S
MERRILL        CLOUDY    46  44  93 SE3       30.20S
$$

WIZ029-030-035-036-043>047-061300-
CENTRAL WISCONSIN

CITY           SKY/WX    TMP DP  RH WIND       PRES   REMARKS
WAUSAU         CLOUDY    47  43  86 SE6       30.19S
6HR MIN TEMP:  47; 6HR MAX TEMP:  53; 6HR PCP:  0.13;

MOSINEE        CLOUDY    46  43  87 E8        30.20R
MARSHFIELD     CLOUDY    51  45  79 E12       30.17S
6HR MIN TEMP:  51; 6HR MAX TEMP:  53; 6HR PCP:  0.01;

STEVENS POINT  CLOUDY    47  41  79 E6        30.19S
WAUPACA        PTSUNNY   54  41  62 E5        30.21R
WAUTOMA        CLOUDY    50  46  87 E6        30.20S
WISC RAPIDS    CLOUDY    52  44  74 SE7       30.19R
6HR MIN TEMP:  51; 6HR MAX TEMP:  52; 6HR PCP: TRACE;

CAMP DOUGLAS   CLOUDY    50  50 100 E6        30.15S FOG
$$

WIZ011>013-019>022-031-037>040-048>050-061300-
NORTHEAST WISCONSIN

CITY           SKY/WX    TMP DP  RH WIND       PRES   REMARKS
ANTIGO         LGT RAIN  48  39  71 SE7       30.21R
SHAWANO        LGT RAIN  51  44  76 CALM      30.22R
OCONTO         CLOUDY    50  41  70 CALM      30.22R
STURGEON BAY   CLOUDY    48  36  61 CALM      30.26R
6HR MIN TEMP:  46; 6HR MAX TEMP:  52;

GREEN BAY      RAIN      52  44  74 SE7       30.22R
6HR MIN TEMP:  51; 6HR MAX TEMP:  54; 6HR PCP:  0.02;

MANITOWOC      NOT AVBL
APPLETON       PTSUNNY   52  41  66 E7        30.22R
CLINTONVILLE   RAIN      46  43  87 E3        30.21S
OSHKOSH        CLOUDY    51  44  77 E5        30.20R
6HR MIN TEMP:  49; 6HR MAX TEMP:  53; 6HR PCP:  0.04;

$$

WIZ032>034-041-042-053>061-061300-
SOUTHWEST WISCONSIN

CITY           SKY/WX    TMP DP  RH WIND       PRES   REMARKS
LA CROSSE      CLOUDY    56  53  90 SE7       30.12S FOG
6HR MIN TEMP:  56; 6HR MAX TEMP:  56;

SPARTA         CLOUDY    53  51  94 E5        30.15S FOG
VIROQUA        CLOUDY    51  51 100 SE10      30.13S VSB<1/4
BOSCOBEL       FOG       54  52  93 CALM      30.15R VSB 3/4
6HR MIN TEMP:  54; 6HR MAX TEMP:  56;

PRAIRIE DU CHI CLOUDY    54  52  94 E6        30.12S FOG
PLATTEVILLE    CLOUDY    52  51  97 E9        30.14R VSB<1/4
$$

WIZ056-057-062-063-064-067-068-061300-
SOUTH CENTRAL WISCONSIN

CITY           SKY/WX    TMP DP  RH WIND       PRES   REMARKS
REEDSBURG      FOG       50  50 100 E3        30.16R VSB 3/4
BARABOO/DELLS  NOT AVBL
LONE ROCK      NOT AVBL
MINERAL POINT  FOG       54  52  94 E7        30.14S VSB<1/4
MADISON        CLOUDY    49  47  93 E7        30.17R FOG
6HR MIN TEMP:  49; 6HR MAX TEMP:  52;

MIDDLETON      CLOUDY    51  51  99 E5        30.17S VSB 1
WATERTOWN      CLOUDY    48  48 100 E5        30.18R FOG
MONROE         FOG       50  50 100 E6        30.15S VSB<1/4
JANESVILLE     FOG       52  48  87 E7        30.16S VSB 1/2
$$

WIZ051-052-058>065-066-070>072-061300-
SOUTHEAST WISCONSIN

CITY           SKY/WX    TMP DP  RH WIND       PRES   REMARKS
MILWAUKEE      FOG       45  43  93 NE6       30.20S VSB 1/2
6HR MIN TEMP:  45; 6HR MAX TEMP:  47;

WAUKESHA       FOG       46  46 100 NE5       30.20R VSB 1/2
MILWAUKEE/TIMM FOG       46  45  93 CALM      30.21R VSB 1/4
RACINE         FOG       45  44  97 SE5       30.21R VSB<1/4
6HR MIN TEMP:  45; 6HR MAX TEMP:  48;

BURLINGTON     FOG       46  46 100 E3        30.19R VSB<1/4
KENOSHA        FOG       47  46  97 E5        30.19R VSB 1/8
6HR MIN TEMP:  47; 6HR MAX TEMP:  48;

FOND DU LAC    CLOUDY    51  46  83 E6        30.19S
6HR MIN TEMP:  48; 6HR MAX TEMP:  51; 6HR PCP:  0.01;

SHEBOYGAN      CLOUDY    47  43  86 CALM      30.21S
6HR MIN TEMP:  45; 6HR MAX TEMP:  48; 6HR PCP:  0.09;

WEST BEND      FOG       45  43  93 E5        30.20S VSB<1/4
JUNEAU         CLOUDY    48  46  95 E6        30.19S FOG
$$

LSZ147-162-061300-
LAKE SUPERIOR

STATION/POSITION TIME  TEMP    WIND        PRES    WAVE
                       AIR SEA DIR/SP/G            HT/PER
                 (UTC) (F)     (DEG/KT/KT) (MB)    (FT/S)
W MID LAKE BUOY  1050   41 35   70/  6/  8 1022.6F   1
DEVILS ISLAND    1100   46      90/ 10/ 11 1021.7F
PORT WING        1140   43      CALM  /  2 1020.3F
SAXON HARBOR     1140   52        CALM     1020.7R
$$

LMZ867-665-643>646-061300-
LAKE MICHIGAN

STATION/POSITION TIME  TEMP    WIND        PRES    WAVE
                       AIR SEA DIR/SP/G            HT/PER
                 (UTC) (F)     (DEG/KT/KT) (MB)    (FT/S)
CHAMBERS ISLAND  1100   45        CALM     1023.4S
NORTHPORT PIER   1100   48     190/  3/  7 1023.4S
SISTER BAY       1117   50        CALM       N/A
KEWAUNEE LAKESHO 1100   44      40/  3/  5 1022.4F
SHEBOYGAN LAKESH 1100   44      80/  2/  4 1023.7R
PORT WASHINGTON  1100   45      40/  4/  5 1023.4S
ATWATER BUOY     1100   43      10/  4/  4 1023.8R
MILWAUKEE LAKESH 1100   45      40/  4/  5   N/A
KENOSHA   LAKESH 1100   44      40/  1/  2 1022.0S
$$

TC  - TEMPERATURE IN CELSIUS
VSB - VISIBILITY IN STATUTE MILES
WCI - WIND CHILL INDEX
HX  - HEAT INDEX




USA.gov is the U.S. government's official web portal to all federal, state and local government web resources and services.